Location: C�mpuri de-Sus
(45.9500°N, 22.5500°E)
Time: 06:12:33
(UTC+00:00)

Cosmos 2360 Rocket - Pass Details

Date: 24 October 2021
Orbit: 832 x 846 km, 71.0° (Epoch: 04 December)

Event Time Altitude Azimuth Distance (km) Brightness Sun altitude
Rises 16:31:17 0° 177° (S) 3,372 5.4 -11.6°
Reaches altitude 10° 16:33:54 10° 168° (SSE) 2,445 4.5 -12.0°
Maximum altitude 16:38:53 34° 105° (ESE) 1,357 2.8 -12.9°
Drops below altitude 10° 16:43:55 10° 42° (NE) 2,469 4.2 -13.8°
Enters shadow 16:44:35 - 40° (NE) 2,701 4.4 -13.9°
